Theta_e
312 313 314 315 314 311 302 292 292 298 300 292 287 286 289 295 290 292 289 288 286 283 283 283 282 282 283 286 284 279 280 275 271 274 278 280 277 273 273 266 264 267 262 266
312 311 313 314 313 309 297 292 292 298 298 287 283 287 288 289 289 287 287 286 287 285 283 281 284 284 287 287 285 280 281 274 268 271 274 277 274 275 274 272 268 261 258 266
311 310 312 313 313 310 298 294 292 293 291 288 287 285 284 285 289 287 287 286 286 283 281 283 283 283 286 287 286 291 285 275 272 269 271 274 272 275 274 270 261 261 267 270
311 311 313 313 312 309 298 291 285 287 284 286 286 285 285 284 283 287 286 283 284 282 278 279 279 282 282 284 286 281 278 273 273 274 274 275 274 274 274 266 270 262 271 272
310 312 313 312 311 308 294 290 288 287 282 287 284 285 282 283 284 284 283 283 283 282 280 280 280 280 279 278 280 277 277 272 273 271 274 274 273 274 274 274 274 272 273 273
311 313 312 310 310 305 293 291 291 290 283 282 283 281 284 285 285 285 286 285 282 280 281 281 280 280 280 279 276 276 275 273 269 266 270 272 268 272 274 274 275 274 270 275
312 313 312 310 309 304 295 292 291 288 279 282 283 286 286 285 284 284 284 285 283 284 283 283 282 281 280 280 278 278 274 272 268 264 267 262 270 276 276 275 277 276 277 278
311 312 312 310 308 305 296 293 292 287 279 284 285 285 284 284 284 282 283 283 283 285 282 277 276 275 276 277 277 275 275 271 261 263 264 268 272 275 274 273 274 278 277 279
311 311 311 310 307 303 294 290 292 291 287 281 286 285 284 281 279 280 282 284 285 284 279 275 270 271 273 273 274 276 275 272 267 260 260 264 271 277 279 277 268 278 280 279
312 311 310 308 307 304 295 290 292 290 283 283 285 282 283 284 281 277 280 281 282 282 273 272 272 272 274 271 270 271 266 263 261 264 258 267 274 278 280 266 269 280 281 280
312 311 310 309 306 302 294 288 291 289 282 282 285 285 284 284 283 279 281 279 279 276 272 273 273 273 274 271 271 272 270 263 260 260 258 264 277 277 271 276 279 280 281 282
311 311 310 309 307 304 298 289 291 291 285 283 286 286 286 285 285 282 280 280 279 280 276 274 275 273 273 272 268 272 268 271 266 269 269 275 276 279 281 281 279 280 281 283
311 310 309 307 306 303 297 288 288 288 283 282 283 282 286 288 287 287 281 280 282 280 279 275 272 271 273 268 270 269 271 273 271 272 273 275 278 280 281 281 281 283 284 284
310 309 308 306 304 302 297 289 288 288 285 279 279 287 285 288 288 289 287 284 284 281 277 270 268 271 274 269 272 271 273 273 272 272 274 278 279 279 281 281 283 284 285 285
309 308 306 305 303 299 294 290 289 289 292 277 279 283 285 287 287 286 286 284 281 276 274 270 270 275 273 271 273 270 274 273 272 271 276 276 277 280 282 281 282 284 284 284
308 307 306 304 301 297 294 287 290 290 288 281 275 280 282 285 285 285 284 283 278 277 276 273 275 277 274 267 269 274 276 278 279 276 279 279 280 281 283 282 284 284 285 284
307 306 304 303 301 294 291 291 289 293 288 280 274 276 281 282 283 282 281 279 276 277 273 274 275 275 273 268 269 276 278 280 279 279 279 277 279 279 282 283 285 286 285 284
306 304 302 301 300 295 287 291 295 291 284 281 273 270 277 281 277 278 280 275 275 275 272 274 275 274 271 267 274 276 279 279 277 279 279 280 280 281 283 284 284 283 283 284
303 302 300 295 290 286 286 296 294 292 288 276 273 275 273 282 277 277 278 277 271 275 271 272 274 270 268 275 275 277 279 279 279 279 279 280 278 280 282 282 282 281 282 283
303 296 291 286 288 295 294 289 287 285 284 282 274 277 274 279 277 272 273 272 269 267 272 274 267 271 276 277 278 279 280 280 281 276 277 278 279 280 281 281 282 281 282 283
294 289 285 289 294 290 287 282 283 280 274 275 277 278 275 280 275 273 276 269 266 266 271 269 269 269 274 278 278 280 280 281 281 280 280 281 281 281 281 281 281 282 283 283
293 289 290 289 286 283 282 279 277 273 275 276 277 278 279 277 280 276 273 270 269 266 274 268 269 273 277 278 279 279 280 281 281 282 281 282 282 281 281 280 281 282 283 284
295 290 285 285 282 280 278 274 271 272 276 277 278 276 278 278 279 275 274 271 270 276 269 270 272 276 278 278 280 279 280 281 281 280 280 281 281 281 280 281 282 282 283 284
288 286 282 282 278 280 280 277 277 278 278 279 280 277 278 278 276 275 273 271 274 268 268 270 275 275 277 278 279 280 279 280 280 279 280 279 280 280 281 281 282 282 283 284
286 286 287 280 279 274 275 276 277 279 283 280 278 277 278 274 273 275 273 270 268 270 271 274 275 277 278 278 278 279 279 279 280 279 280 280 280 280 280 281 282 283 283 283
285 282 278 279 277 272 276 277 278 283 282 279 279 274 272 271 274 270 271 270 270 273 274 276 277 277 277 278 279 279 278 279 279 279 280 280 279 280 280 281 282 282 283 282
279 277 280 279 279 277 278 280 280 285 282 275 277 273 273 275 272 270 275 273 275 275 275 277 279 278 277 278 278 278 279 278 278 278 279 280 280 281 281 281 281 282 283 282
Wind_Speed
6 8 8 8 6 1 7 4 4 4 3 8 3 4 3 2 4 7 5 5 4 4 3 4 2 1 2 6 2 3 2 3 2 2 2 6 5 3 3 6 7 2 4 9
6 8 8 7 4 2 5 4 1 3 3 6 3 2 5 4 5 5 4 4 4 4 3 3 2 3 1 5 3 3 1 3 4 1 2 4 6 3 4 5 3 3 3 9
6 8 8 7 2 7 7 5 3 6 7 2 8 7 3 4 4 4 5 4 4 4 3 6 4 2 2 4 4 8 2 3 5 5 2 1 3 5 3 5 4 3 8 17
5 8 9 5 3 9 7 5 1 1 1 6 7 6 3 4 4 4 6 4 6 3 3 2 3 2 0 3 8 4 4 3 2 3 4 1 2 2 3 2 5 4 14 18
5 8 7 3 10 9 8 7 7 4 3 2 6 5 2 4 3 4 3 6 4 3 5 1 5 4 2 1 4 3 4 1 3 3 4 1 3 3 6 0 2 8 13 18
6 7 5 2 12 5 5 1 2 8 4 2 4 0 5 5 8 4 5 7 5 7 3 3 3 5 5 4 2 2 4 3 4 2 4 2 1 2 2 7 5 7 8 9
6 7 7 8 10 3 6 4 5 7 0 3 3 4 5 5 3 8 2 4 5 2 6 5 4 8 8 9 7 4 3 3 3 2 2 4 4 3 5 9 10 5 4 15
4 8 14 16 15 8 7 3 5 6 5 4 6 7 9 7 6 6 5 5 1 7 5 5 4 4 4 5 6 7 5 4 3 3 1 4 1 4 4 3 12 2 14 21
5 8 10 12 12 12 8 4 1 7 11 3 3 6 4 5 4 4 3 4 3 6 4 4 3 2 3 2 0 1 6 7 5 4 3 3 3 6 4 2 5 1 15 18
9 13 15 17 16 12 8 4 4 8 10 2 3 4 5 5 5 5 4 4 2 4 2 3 3 2 0 1 1 0 4 4 4 1 2 7 5 7 6 6 7 16 14 16
11 12 14 15 14 13 7 1 5 7 7 3 4 4 4 3 3 6 5 5 3 4 4 3 2 2 3 1 1 3 5 5 2 3 3 4 3 3 2 6 6 8 12 14
12 13 13 13 14 11 8 7 3 8 11 5 3 6 5 3 2 7 2 3 3 5 5 0 3 2 1 2 3 2 2 6 5 8 6 3 3 6 5 5 7 7 12 16
14 13 16 18 17 16 13 6 2 7 6 5 5 5 6 7 4 2 6 3 4 2 2 4 3 3 4 3 5 2 2 3 2 3 2 4 6 4 4 4 7 13 12 13
16 17 17 19 20 19 12 6 1 6 7 8 3 3 5 8 5 3 2 7 6 6 3 4 3 3 2 3 1 2 4 4 4 4 6 6 4 4 6 6 8 12 13 12
19 19 21 23 25 28 17 7 4 3 6 7 3 1 5 6 6 11 9 7 5 3 4 4 2 2 4 1 2 3 5 6 5 5 4 4 8 6 7 6 10 12 10 14
21 21 22 20 13 4 6 7 5 4 4 9 4 2 3 6 6 11 9 5 4 4 4 1 1 1 3 4 3 4 4 4 5 4 3 6 8 6 6 8 11 11 10 12
25 22 19 17 18 9 7 4 3 2 4 7 5 2 3 2 4 4 4 4 2 4 2 2 2 1 4 3 4 4 7 5 4 4 1 3 1 4 10 9 10 11 10 8
27 27 28 29 27 15 7 5 4 4 8 6 6 2 2 2 2 3 3 3 3 6 2 2 2 2 1 3 6 4 5 4 1 4 2 5 5 6 7 6 7 10 11 13
31 25 18 8 8 5 2 1 4 4 6 6 4 7 5 1 1 2 3 2 4 2 2 1 3 1 5 7 6 8 7 6 6 2 3 4 2 5 7 6 9 9 13 13
22 10 6 4 1 2 1 6 5 6 4 4 4 2 3 4 1 1 3 2 1 1 3 2 2 6 4 4 6 7 8 7 6 1 3 3 3 5 6 6 6 6 9 11
4 5 4 1 2 2 4 3 3 1 4 1 3 4 6 2 4 3 0 3 1 3 4 4 3 6 5 8 8 6 6 6 6 4 3 5 5 5 6 7 7 6 8 10
9 14 9 3 3 4 6 2 1 2 7 2 5 5 4 2 3 5 1 4 2 3 3 3 5 5 4 8 7 7 7 6 4 4 2 0 3 3 4 4 6 6 8 10
5 7 6 3 1 3 10 11 5 3 7 7 5 5 5 3 3 4 3 4 3 3 1 6 6 2 5 7 7 6 6 5 4 2 1 1 3 4 2 5 5 7 8 9
5 7 8 8 6 8 8 8 7 4 8 13 8 4 5 3 4 3 5 2 3 1 4 9 4 7 7 6 6 7 6 5 4 1 0 2 3 4 5 5 5 6 7 10
6 6 9 9 2 4 3 5 5 3 12 11 7 5 4 3 5 2 5 2 5 7 7 4 4 8 9 8 6 7 6 5 3 2 1 2 3 3 4 4 5 6 6 8
3 4 6 5 6 3 3 5 9 10 12 5 4 5 4 2 6 5 9 8 10 6 5 3 8 11 8 8 7 7 5 5 3 2 1 2 3 3 4 5 4 6 6 7
5 2 2 3 4 5 6 9 8 14 11 5 5 7 6 5 3 5 6 7 4 4 3 6 9 11 9 7 7 6 6 5 3 2 1 1 2 3 3 6 6 5 5 6
Wind_Direction
349 339 348 355 3 28 64 94 62 320 30 57 41 75 93 102 9 24 41 85 83 88 53 62 89 120 346 345 338 31 348 135 310 25 99 65 68 74 87 106 296 244 156 276
337 335 341 346 354 157 121 90 123 335 84 114 82 99 66 68 40 35 35 67 46 48 106 112 115 115 358 11 55 68 342 24 349 214 251 36 53 39 60 94 90 239 99 274
323 324 334 343 355 152 88 89 67 352 47 28 112 122 77 99 36 65 56 84 81 85 54 24 130 128 0 357 358 45 103 101 139 195 268 211 7 41 64 106 86 265 254 295
315 319 323 330 155 149 94 33 159 217 35 7 88 89 107 99 58 38 34 51 48 85 89 50 98 105 149 29 349 38 77 107 60 55 74 34 88 41 11 125 215 146 298 303
321 325 322 298 157 138 79 125 133 29 73 8 71 21 70 119 135 27 11 89 32 43 104 359 183 138 190 249 3 49 351 77 67 56 352 258 117 8 342 37 261 258 300 303
353 343 343 177 174 103 108 156 48 100 325 38 79 202 153 137 131 58 36 135 101 57 93 108 82 84 77 77 83 51 46 71 50 341 341 121 328 202 335 292 258 272 301 304
19 32 42 83 157 125 119 159 112 89 285 79 118 110 83 95 31 127 37 29 89 138 117 120 56 53 63 57 40 46 102 75 67 253 340 4 235 247 247 275 301 294 318 314
37 34 63 77 85 98 91 105 107 113 105 113 67 75 107 92 61 68 71 14 12 136 54 62 43 358 25 47 31 26 56 103 55 103 220 312 33 324 314 331 313 134 338 327
80 59 63 66 75 84 85 72 52 101 127 324 111 102 134 127 102 53 62 31 31 66 78 70 110 254 227 315 78 54 69 64 108 50 75 265 184 285 284 148 285 6 338 321
99 88 81 77 76 89 99 72 21 89 100 359 28 121 155 113 97 101 139 173 76 45 75 85 143 241 90 272 224 283 17 9 110 114 222 287 258 301 318 50 261 328 325 313
111 92 86 86 87 81 79 106 5 108 91 42 13 33 108 83 97 136 181 73 332 43 72 120 199 161 211 109 199 203 175 131 177 82 55 316 192 342 103 242 293 292 306 310
114 98 85 84 84 90 89 84 4 56 79 118 76 89 63 34 72 123 34 159 152 174 91 61 115 136 117 114 254 33 312 179 181 173 219 240 246 209 257 273 284 297 311 310
117 99 88 83 83 80 94 108 59 61 89 46 43 360 338 27 4 300 115 306 145 109 136 152 155 141 133 161 238 189 238 157 152 50 266 248 271 274 232 279 293 305 305 308
116 105 96 90 84 81 82 86 344 80 106 102 320 347 21 328 358 55 40 123 72 95 76 98 124 132 165 192 182 181 194 128 160 272 294 311 343 250 304 306 296 309 317 319
118 110 106 102 98 94 85 82 34 43 111 133 143 319 352 3 31 59 57 84 95 81 56 67 163 108 105 350 58 248 186 175 156 216 222 193 269 294 307 321 319 316 317 317
121 118 113 106 97 83 66 45 2 5 83 100 98 295 10 9 39 57 48 44 64 80 107 148 108 238 109 110 211 242 188 179 166 191 172 218 262 295 312 313 307 306 309 309
123 115 105 95 79 65 65 144 185 39 77 87 88 34 330 342 40 43 32 33 62 83 115 76 133 151 94 117 211 205 184 185 185 204 47 319 304 315 311 294 300 310 299 297
117 107 99 93 96 107 46 1 53 79 87 72 109 305 15 351 46 57 3 45 31 16 140 22 96 17 48 249 224 168 156 145 195 216 209 246 309 310 302 299 315 334 336 327
117 112 106 71 38 59 175 285 39 53 99 113 96 136 189 84 65 78 38 39 50 280 78 38 82 294 237 228 175 172 179 172 173 204 294 306 297 308 318 319 335 344 332 330
112 54 59 60 29 44 139 8 31 23 0 45 96 121 130 114 121 8 90 14 90 91 258 80 114 252 243 221 197 164 166 169 147 151 339 336 324 329 319 319 316 299 311 321
68 94 77 81 311 73 40 71 97 3 17 58 138 126 131 258 120 149 354 160 214 81 263 127 257 268 228 169 170 173 166 164 169 182 195 217 231 280 314 328 321 316 315 321
133 111 104 100 71 56 101 95 44 146 203 155 129 157 138 157 114 101 271 109 67 213 140 76 258 249 197 153 162 170 170 170 170 169 159 289 296 312 312 312 313 315 307 314
84 63 87 120 56 142 178 178 246 196 168 169 159 128 125 92 75 71 113 117 183 103 80 234 228 224 161 153 139 153 172 176 157 133 80 348 320 351 354 310 317 318 316 319
102 146 145 205 174 225 185 175 166 170 133 139 127 105 118 134 88 140 114 223 106 147 239 234 210 181 163 152 144 135 176 175 173 160 57 19 346 325 339 336 329 331 331 327
135 130 205 192 143 71 122 119 100 122 140 130 109 69 92 101 107 119 107 118 227 211 230 221 181 153 146 147 150 156 160 162 157 174 116 333 326 336 326 342 340 336 331 335
127 153 118 122 84 80 132 123 123 140 140 105 69 116 94 156 136 135 204 167 219 224 201 186 139 144 143 148 155 169 171 176 185 211 197 261 315 333 324 332 351 340 342 333
132 161 78 115 74 143 144 151 157 154 147 130 131 127 170 118 171 204 190 211 219 173 154 141 144 150 151 148 148 163 173 169 189 201 206 273 331 341 20 358 333 335 330 328